Location: Oberwangen
(47.4286°N, 8.9679°E)
Time: 07:39:32
(UTC+00:00)

Cosmos 1607 - Pass Details

Date: 25 October 2021
Orbit: 918 x 984 km, 65.0° (Epoch: 30 November)

Event Time Altitude Azimuth Distance (km) Brightness Sun altitude
Rises 16:47:50 0° 317° (NW) 3,653 7.5 -5.7°
Reaches altitude 10° 16:50:38 10° 309° (NW) 2,692 6.9 -6.1°
Maximum altitude 16:56:10 34° 247° (WSW) 1,512 5.9 -7.1°
Drops below altitude 10° 17:01:36 10° 184° (S) 2,635 6.5 -8.0°
Sets 17:04:19 0° 176° (S) 3,565 7.0 -8.4°
